Radiation Dose at Monitoring Post of Fukushima Daini Nuclear Power Station
Date,Time,MP-1(microSv/h),MP-2(microSv/h),MP-3(microSv/h),MP-4(microSv/h),MP-5(microSv/h),MP-6(microSv/h),MP-7(microSv/h),Wind Direction,Wind Velocity(m/s),Rain
2020/11/14,00:00,0.182,0.159,0.260,0.249,0.247,0.141,0.085,west-northwest,3.0,No
2020/11/14,00:10,0.180,0.159,0.263,0.247,0.244,0.141,0.085,northwest,1.7,No
2020/11/14,00:20,0.181,0.159,0.262,0.248,0.245,0.142,0.086,northwest,2.9,No
2020/11/14,00:30,0.181,0.160,0.261,0.249,0.247,0.142,0.085,northwest,3.4,No
2020/11/14,00:40,0.180,0.160,0.263,0.247,0.246,0.142,0.085,north-northwest,2.6,No
2020/11/14,00:50,0.181,0.159,0.262,0.247,0.246,0.142,0.085,north-northwest,4.1,No
2020/11/14,01:00,0.180,0.161,0.261,0.248,0.247,0.142,0.085,north-northwest,4.4,No
2020/11/14,01:10,0.180,0.159,0.262,0.247,0.245,0.142,0.086,north-northwest,5.4,No
2020/11/14,01:20,0.181,0.159,0.261,0.249,0.246,0.142,0.085,north,4.4,No
2020/11/14,01:30,0.180,0.159,0.261,0.248,0.246,0.141,0.085,north,4.7,No
2020/11/14,01:40,0.180,0.158,0.263,0.249,0.246,0.142,0.086,north,4.7,No
2020/11/14,01:50,0.181,0.159,0.262,0.248,0.247,0.142,0.085,north-northwest,4.7,No
2020/11/14,02:00,0.182,0.159,0.261,0.248,0.247,0.142,0.085,north,5.1,No
2020/11/14,02:10,0.179,0.159,0.261,0.249,0.246,0.141,0.086,north,5.2,No
2020/11/14,02:20,0.181,0.159,0.263,0.248,0.247,0.142,0.086,north,5.9,No
2020/11/14,02:30,0.181,0.160,0.262,0.247,0.247,0.142,0.086,north,6.3,No
2020/11/14,02:40,0.182,0.160,0.262,0.249,0.247,0.142,0.086,north,5.5,No
2020/11/14,02:50,0.181,0.159,0.263,0.248,0.247,0.142,0.086,north,4.9,No
2020/11/14,03:00,0.182,0.159,0.263,0.248,0.246,0.142,0.086,north,5.3,No
2020/11/14,03:10,0.180,0.160,0.261,0.249,0.247,0.141,0.086,north,4.7,No
2020/11/14,03:20,0.181,0.159,0.262,0.248,0.245,0.142,0.086,north,3.9,No
2020/11/14,03:30,0.182,0.159,0.262,0.250,0.245,0.141,0.086,north-northeast,3.6,No
2020/11/14,03:40,0.180,0.160,0.261,0.248,0.247,0.143,0.086,northeast,3.0,No
2020/11/14,03:50,0.181,0.159,0.261,0.249,0.247,0.141,0.085,north-northeast,2.8,No
2020/11/14,04:00,0.182,0.159,0.263,0.247,0.247,0.142,0.085,north-northeast,4.0,No
2020/11/14,04:10,0.182,0.158,0.262,0.248,0.246,0.142,0.086,northeast,2.5,No
2020/11/14,04:20,0.182,0.160,0.262,0.249,0.247,0.142,0.086,north-northeast,2.6,No
2020/11/14,04:30,0.181,0.160,0.262,0.249,0.246,0.141,0.086,northeast,2.9,No
2020/11/14,04:40,0.181,0.159,0.262,0.248,0.247,0.143,0.086,north-northeast,2.2,No
2020/11/14,04:50,0.181,0.159,0.262,0.249,0.247,0.142,0.085,northeast,3.5,No
2020/11/14,05:00,0.181,0.159,0.262,0.248,0.247,0.142,0.086,northeast,2.8,No
2020/11/14,05:10,0.181,0.160,0.261,0.248,0.247,0.142,0.086,north-northeast,3.4,No
2020/11/14,05:20,0.182,0.159,0.263,0.248,0.246,0.142,0.086,north-northeast,2.8,No
2020/11/14,05:30,0.181,0.159,0.262,0.248,0.246,0.142,0.087,north-northeast,3.9,No
2020/11/14,05:40,0.181,0.159,0.262,0.248,0.247,0.142,0.086,north,3.4,No
2020/11/14,05:50,0.182,0.159,0.262,0.248,0.247,0.142,0.086,north,2.0,No
2020/11/14,06:00,0.181,0.160,0.262,0.247,0.247,0.142,0.086,north-northeast,3.1,No
2020/11/14,06:10,0.181,0.159,0.263,0.249,0.246,0.142,0.086,north-northeast,5.2,No
2020/11/14,06:20,0.181,0.159,0.262,0.249,0.246,0.142,0.085,north-northeast,5.3,No
2020/11/14,06:30,0.181,0.160,0.262,0.249,0.246,0.142,0.086,north,5.2,No
2020/11/14,06:40,0.180,0.159,0.262,0.248,0.249,0.142,0.086,north,4.6,No
2020/11/14,06:50,0.182,0.160,0.263,0.248,0.247,0.141,0.086,north,4.5,No
2020/11/14,07:00,0.181,0.158,0.261,0.249,0.246,0.141,0.086,north,5.7,No
2020/11/14,07:10,0.181,0.158,0.262,0.249,0.246,0.142,0.086,north,5.6,No
2020/11/14,07:20,0.181,0.160,0.262,0.247,0.248,0.141,0.085,north,5.1,No
2020/11/14,07:30,0.181,0.160,0.261,0.249,0.246,0.142,0.086,north,5.4,No
2020/11/14,07:40,0.181,0.159,0.262,0.249,0.246,0.142,0.085,north,6.1,No
2020/11/14,07:50,0.181,0.159,0.262,0.247,0.247,0.141,0.086,north,5.1,No
2020/11/14,08:00,0.181,0.159,0.262,0.248,0.247,0.142,0.086,north,5.2,No
2020/11/14,08:10,0.181,0.160,0.261,0.248,0.246,0.141,0.086,north,5.3,No
2020/11/14,08:20,0.181,0.160,0.263,0.247,0.246,0.142,0.085,north,3.5,No
2020/11/14,08:30,0.181,0.159,0.261,0.249,0.247,0.142,0.085,north,3.2,No
2020/11/14,08:40,0.181,0.159,0.261,0.246,0.246,0.142,0.086,north,3.2,No
2020/11/14,08:50,0.180,0.160,0.261,0.249,0.247,0.142,0.085,north,3.0,No
2020/11/14,09:00,0.181,0.158,0.261,0.247,0.248,0.141,0.085,north,3.3,No
2020/11/14,09:10,0.180,0.158,0.261,0.248,0.249,0.141,0.086,north,3.8,No
2020/11/14,09:20,0.181,0.159,0.262,0.246,0.246,0.141,0.085,north-northeast,4.4,No
2020/11/14,09:30,0.182,0.158,0.261,0.248,0.247,0.141,0.085,north-northeast,4.0,No
2020/11/14,09:40,0.180,0.158,0.260,0.245,0.245,0.141,0.085,north-northeast,4.0,No
2020/11/14,09:50,0.181,0.157,0.262,0.248,0.247,0.142,0.086,northeast,3.0,No
2020/11/14,10:00,0.179,0.158,0.260,0.247,0.244,0.140,0.085,north-northeast,1.6,No
2020/11/14,10:10,0.181,0.158,0.261,0.248,0.245,0.141,0.085,east-northeast,2.0,No
2020/11/14,10:20,0.179,0.159,0.260,0.248,0.247,0.141,0.085,east-northeast,1.8,No
2020/11/14,10:30,0.180,0.158,0.260,0.247,0.243,0.142,0.085,east,2.1,No
2020/11/14,10:40,0.181,0.159,0.260,0.247,0.246,0.142,0.086,northwest,1.4,No
2020/11/14,10:50,0.179,0.157,0.261,0.246,0.246,0.142,0.086,northwest,2.6,No
2020/11/14,11:00,0.181,0.159,0.261,0.248,0.243,0.142,0.086,north-northwest,3.4,No
2020/11/14,11:10,0.181,0.159,0.259,0.247,0.246,0.141,0.086,north,2.5,No
2020/11/14,11:20,0.178,0.158,0.262,0.247,0.246,0.141,0.085,north,5.1,No
2020/11/14,11:30,0.180,0.159,0.261,0.248,0.244,0.142,0.086,north-northwest,2.8,No
2020/11/14,11:40,0.181,0.159,0.261,0.247,0.244,0.141,0.086,northeast,2.7,No
2020/11/14,11:50,0.180,0.160,0.262,0.247,0.246,0.142,0.085,north,2.4,No
2020/11/14,12:00,0.182,0.158,0.260,0.249,0.245,0.142,0.086,east,2.1,No
2020/11/14,12:10,0.181,0.157,0.262,0.246,0.243,0.141,0.085,south,2.9,No
2020/11/14,12:20,0.180,0.160,0.263,0.249,0.248,0.143,0.085,south,2.3,No
2020/11/14,12:30,0.178,0.158,0.260,0.249,0.245,0.141,0.085,south-southwest,3.6,No
2020/11/14,12:40,0.180,0.159,0.262,0.246,0.244,0.143,0.086,south-southeast,3.8,No
2020/11/14,12:50,0.181,0.157,0.262,0.249,0.247,0.142,0.085,south-southeast,4.9,No
2020/11/14,13:00,0.180,0.157,0.262,0.248,0.245,0.142,0.086,south,3.1,No
2020/11/14,13:10,0.179,0.160,0.263,0.247,0.247,0.142,0.085,southwest,2.0,No
2020/11/14,13:20,0.182,0.159,0.260,0.250,0.247,0.143,0.085,west-southwest,0.8,No
2020/11/14,13:30,0.181,0.157,0.262,0.247,0.244,0.142,0.086,west-southwest,1.2,No
2020/11/14,13:40,0.179,0.160,0.262,0.245,0.246,0.142,0.085,south-southwest,1.4,No
2020/11/14,13:50,0.179,0.158,0.261,0.249,0.246,0.142,0.086,southwest,1.2,No
2020/11/14,14:00,0.182,0.159,0.263,0.247,0.245,0.142,0.085,west-southwest,1.1,No
2020/11/14,14:10,0.180,0.159,0.262,0.247,0.245,0.141,0.086,northwest,3.3,No
2020/11/14,14:20,0.182,0.157,0.262,0.249,0.247,0.141,0.085,west,2.9,No
2020/11/14,14:30,0.181,0.159,0.264,0.246,0.247,0.141,0.085,west,3.6,No
2020/11/14,14:40,0.182,0.158,0.262,0.248,0.248,0.141,0.086,west-northwest,4.7,No
2020/11/14,14:50,0.181,0.159,0.263,0.248,0.247,0.142,0.085,northeast,2.3,No
2020/11/14,15:00,0.182,0.158,0.261,0.249,0.247,0.141,0.086,east-southeast,2.1,No
2020/11/14,15:10,0.181,0.159,0.262,0.248,0.246,0.142,0.086,south-southeast,2.2,No
2020/11/14,15:20,0.180,0.158,0.261,0.250,0.248,0.142,0.085,southeast,2.4,No
2020/11/14,15:30,0.181,0.161,0.262,0.248,0.246,0.141,0.086,-,CALM,No
2020/11/14,15:40,0.181,0.160,0.262,0.249,0.247,0.142,0.085,northwest,2.0,No
2020/11/14,15:50,0.182,0.159,0.263,0.250,0.246,0.141,0.086,northwest,3.4,No
2020/11/14,16:00,0.181,0.159,0.263,0.249,0.248,0.142,0.085,west-northwest,3.4,No
2020/11/14,16:10,0.181,0.159,0.262,0.250,0.246,0.142,0.085,northwest,3.3,No
2020/11/14,16:20,0.180,0.159,0.263,0.248,0.247,0.142,0.086,west-northwest,3.6,No
2020/11/14,16:30,0.181,0.159,0.263,0.249,0.247,0.142,0.085,west-northwest,4.9,No
2020/11/14,16:40,0.183,0.159,0.263,0.249,0.246,0.141,0.086,west-northwest,4.9,No
2020/11/14,16:50,0.181,0.158,0.263,0.249,0.247,0.143,0.086,west-northwest,4.8,No
2020/11/14,17:00,0.181,0.159,0.262,0.249,0.245,0.142,0.085,west-northwest,3.6,No
2020/11/14,17:10,0.181,0.159,0.262,0.248,0.248,0.142,0.085,west-northwest,3.5,No
2020/11/14,17:20,0.181,0.159,0.263,0.249,0.248,0.142,0.085,west-northwest,4.5,No
2020/11/14,17:30,0.182,0.160,0.263,0.251,0.247,0.142,0.085,west-northwest,4.9,No
2020/11/14,17:40,0.181,0.159,0.263,0.249,0.247,0.142,0.086,west-northwest,3.6,No
2020/11/14,17:50,0.182,0.159,0.263,0.250,0.247,0.142,0.086,west-northwest,4.0,No
2020/11/14,18:00,0.182,0.159,0.262,0.249,0.247,0.143,0.086,northwest,6.0,No
2020/11/14,18:10,0.182,0.160,0.261,0.250,0.247,0.142,0.085,northwest,4.0,No
2020/11/14,18:20,0.181,0.159,0.263,0.248,0.246,0.142,0.085,northwest,4.0,No
2020/11/14,18:30,0.182,0.159,0.264,0.249,0.247,0.142,0.086,northwest,7.2,No
2020/11/14,18:40,0.182,0.159,0.263,0.249,0.248,0.142,0.085,northwest,7.7,No
2020/11/14,18:50,0.182,0.159,0.263,0.249,0.247,0.143,0.086,northwest,7.4,No
2020/11/14,19:00,0.183,0.159,0.262,0.248,0.247,0.142,0.085,northwest,7.4,No
2020/11/14,19:10,0.182,0.159,0.261,0.248,0.248,0.142,0.086,northwest,5.7,No
2020/11/14,19:20,0.181,0.159,0.263,0.250,0.247,0.142,0.085,north-northwest,6.7,No
2020/11/14,19:30,0.182,0.159,0.263,0.248,0.246,0.143,0.086,north-northwest,4.7,No
2020/11/14,19:40,0.181,0.160,0.263,0.248,0.247,0.142,0.085,west-northwest,2.7,No
2020/11/14,19:50,0.181,0.159,0.263,0.249,0.247,0.142,0.085,west,1.7,No
2020/11/14,20:00,0.181,0.158,0.263,0.249,0.246,0.141,0.086,southwest,1.9,No
2020/11/14,20:10,0.182,0.159,0.264,0.249,0.247,0.142,0.085,southwest,2.6,No
2020/11/14,20:20,0.182,0.160,0.263,0.248,0.246,0.143,0.086,west-northwest,1.6,No
2020/11/14,20:30,0.182,0.159,0.262,0.249,0.247,0.142,0.086,north,1.1,No
2020/11/14,20:40,0.182,0.160,0.263,0.249,0.246,0.142,0.086,north-northeast,1.0,No
2020/11/14,20:50,0.182,0.159,0.263,0.250,0.246,0.142,0.086,north-northwest,1.4,No
2020/11/14,21:00,0.182,0.159,0.263,0.248,0.245,0.142,0.086,northwest,1.4,No
2020/11/14,21:10,0.182,0.158,0.263,0.249,0.247,0.143,0.086,northwest,1.7,No
2020/11/14,21:20,0.181,0.159,0.264,0.248,0.246,0.141,0.086,west-northwest,3.8,No
2020/11/14,21:30,0.181,0.160,0.262,0.249,0.246,0.143,0.086,west-northwest,2.8,No
2020/11/14,21:40,0.183,0.159,0.263,0.249,0.247,0.141,0.085,west-northwest,2.4,No
2020/11/14,21:50,0.183,0.159,0.263,0.248,0.247,0.142,0.086,northwest,2.2,No
2020/11/14,22:00,0.181,0.160,0.263,0.249,0.247,0.143,0.086,west-northwest,1.4,No
2020/11/14,22:10,0.181,0.159,0.263,0.248,0.246,0.142,0.086,west-southwest,1.7,No
2020/11/14,22:20,0.182,0.160,0.263,0.249,0.247,0.142,0.086,west,1.9,No
2020/11/14,22:30,0.182,0.159,0.263,0.249,0.247,0.142,0.086,west-northwest,2.1,No
2020/11/14,22:40,0.182,0.158,0.264,0.247,0.246,0.142,0.086,west,2.1,No
2020/11/14,22:50,0.182,0.160,0.263,0.248,0.246,0.142,0.086,west-southwest,1.5,No
2020/11/14,23:00,0.182,0.159,0.263,0.250,0.247,0.143,0.086,-,CALM,No
2020/11/14,23:10,0.182,0.159,0.262,0.248,0.245,0.141,0.085,south-southwest,0.8,No
2020/11/14,23:20,0.181,0.160,0.264,0.250,0.246,0.142,0.086,-,CALM,No
2020/11/14,23:30,0.181,0.159,0.263,0.249,0.246,0.141,0.086,-,CALM,No
2020/11/14,23:40,0.182,0.159,0.263,0.248,0.246,0.142,0.086,southwest,0.6,No
2020/11/14,23:50,0.181,0.159,0.262,0.248,0.246,0.143,0.086,west-southwest,2.0,No
